Location: Arezzo
(43.4170°N, 11.8830°E)
Time: 02:32:24
(UTC+01:00)

STARLINK-2711 - Pass Details

Date: 30 October 2021
Orbit: 545 x 549 km, 53.1° (Epoch: 07 December)

Event Time Altitude Azimuth Distance (km) Brightness Sun altitude
Exits shadow 04:38:18 16° 74° (ENE) 1,452 6.4 -34.3°
Drops below altitude 10° 04:39:18 10° 68° (ENE) 1,811 7.0 -34.1°
Enters shadow 05:39:37 -63° 237° (WSW) 11,924 10.4 -23.3°
Maximum altitude 06:14:55 43° 334° (NNW) 772 4.1 -16.9°
